This is the latest recevied weather packets stored in our database for station/object KK7ISX. If no packets are shown the sender has not sent any weather packets the latest 1 day(s).
| Time | Temp. | Humidity | Pressure | Rain* | Wind** | Luminosity | Snow |
|---|---|---|---|---|---|---|---|
| 1778046792 | 17.78° C | 42% | 1011.7 hPa | 0 mm | 1.34 m/s, 303° | 0 W/m² | - |
| 1778046488 | 17.78° C | 42% | 1011.9 hPa | 0 mm | 2.24 m/s, 304° | 0 W/m² | - |
| 1778046185 | 17.78° C | 42% | 1011.7 hPa | 0 mm | 1.79 m/s, 317° | 0 W/m² | - |
| 1778045881 | 17.78° C | 42% | 1011.5 hPa | 0 mm | 2.24 m/s, 303° | 0 W/m² | - |
| 1778045581 | 17.78° C | 42% | 1011.7 hPa | 0 mm | 1.34 m/s, 335° | 0 W/m² | - |
| 1778045278 | 17.78° C | 42% | 1011.3 hPa | 0 mm | 2.24 m/s, 340° | 0 W/m² | - |
| 1778044976 | 17.78° C | 41% | 1011.5 hPa | 0 mm | 1.34 m/s, 317° | 0 W/m² | - |
| 1778044673 | 18.33° C | 41% | 1011.5 hPa | 0 mm | 1.34 m/s, 349° | 0 W/m² | - |
| 1778044369 | 18.33° C | 40% | 1011.1 hPa | 0 mm | 0.45 m/s, 345° | 0 W/m² | - |
| 1778044068 | 18.33° C | 40% | 1011 hPa | 0 mm | 1.79 m/s, 330° | 0 W/m² | - |
| 1778043765 | 18.33° C | 40% | 1011 hPa | 0 mm | 1.79 m/s, 339° | 0 W/m² | - |
| 1778043461 | 18.33° C | 40% | 1011.1 hPa | 0 mm | 1.79 m/s, 304° | 0 W/m² | - |
| 1778043158 | 18.33° C | 40% | 1010.8 hPa | 0 mm | 0.89 m/s, 278° | 0 W/m² | - |
| 1778042855 | 18.89° C | 39% | 1010.8 hPa | 0 mm | 0.45 m/s, 255° | 0 W/m² | - |
| 1778042552 | 18.89° C | 38% | 1010.8 hPa | 0 mm | 1.34 m/s, 320° | 0 W/m² | - |
| 1778042250 | 18.89° C | 38% | 1010.9 hPa | 0 mm | 0.89 m/s, 279° | 0 W/m² | - |
| 1778041947 | 18.89° C | 38% | 1010.7 hPa | 0 mm | 1.79 m/s, 321° | 0 W/m² | - |
| 1778041646 | 19.44° C | 37% | 1010.7 hPa | 0 mm | 1.34 m/s, 267° | 0 W/m² | - |
| 1778041353 | 19.44° C | 37% | 1010.5 hPa | 0 mm | 0.89 m/s, 333° | 0 W/m² | - |
| 1778041042 | 20° C | 36% | 1010.5 hPa | 0 mm | 0.89 m/s, 275° | 0 W/m² | - |
| 1778040739 | 20° C | 36% | 1010.4 hPa | 0 mm | 0.89 m/s, 27° | 0 W/m² | - |
| 1778040436 | 20° C | 36% | 1010.5 hPa | 0 mm | 0.89 m/s, 67° | 0 W/m² | - |
| 1778040133 | 20.56° C | 35% | 1010.2 hPa | 0 mm | 0.89 m/s, 22° | 0 W/m² | - |
| 1778039830 | 20.56° C | 35% | 1010 hPa | 0 mm | 0.89 m/s, 9° | 0 W/m² | - |
| 1778039527 | 20.56° C | 35% | 1009.9 hPa | 0 mm | 1.34 m/s, 337° | 0 W/m² | - |
* Rain latest hour (hover to see other rain measurements)
** Current wind speed in m/s (hover to see current wind gust speed)